START_TIME,STEP,MOV.,AL01,t_acc.,AL02,t_acc.,E37,t_acc.,H21,t_acc.
1981-08-24 18:00:35.330 ,1,1,0.,24.0,0.,24.0,0.,24.0,0.,24.0
1981-08-24 18:00:59.330 ,2,1,0.,24.0,0.,24.0,0.,24.0,0.,24.0
1981-08-24 18:01:23.330 ,3,1,0.,24.0,0.,24.0,0.,24.0,0.,24.0
1981-08-24 18:01:47.330 ,4,1,0.,24.0,0.,24.0,0.,24.0,0.,24.0
1981-08-24 18:02:11.330 ,5,1,0.,24.0,0.,24.0,0.,24.0,0.,24.0
1981-08-24 18:02:35.330 ,6,1,0.,24.0,0.,24.0,0.,24.0,0.,24.0
1981-08-24 18:02:59.330 ,7,1,10.,24.0,0.,24.0,0.,24.0,0.,24.0
1981-08-24 18:03:23.330 ,7,1,34.,24.0,0.,24.0,0.,24.0,0.,24.0
1981-08-24 18:03:47.330 ,7,0,26.,24.0,0.,24.0,0.,24.0,0.,24.0
1981-08-24 18:04:11.330 ,6,1,32.,24.0,0.,24.0,0.,24.0,0.,24.0
1981-08-24 18:04:35.330 ,6,0,1.,24.0,0.,24.0,0.,24.0,0.,24.0
1981-08-24 18:04:59.330 ,5,1,0.,24.0,0.,24.0,0.,24.0,0.,24.0
1981-08-24 18:05:23.330 ,5,0,0.,24.0,0.,24.0,0.,24.0,0.,24.0
1981-08-24 18:05:47.330 ,4,1,0.,24.0,0.,24.0,0.,24.0,0.,24.0
1981-08-24 18:06:11.330 ,4,0,0.,24.0,0.,24.0,0.,24.0,0.,24.0
1981-08-24 18:06:35.330 ,3,1,0.,24.0,0.,24.0,0.,24.0,0.,24.0
1981-08-24 18:06:59.330 ,3,0,0.,24.0,0.,24.0,0.,24.0,0.,24.0
1981-08-24 18:07:23.330 ,2,1,0.,24.0,0.,24.0,0.,24.0,0.,24.0
1981-08-24 18:07:47.330 ,2,0,0.,24.0,0.,24.0,0.,24.0,0.,24.0
1981-08-24 18:08:11.330 ,1,1,0.,24.0,0.,24.0,0.,24.0,0.,24.0
1981-08-24 18:08:35.330 ,1,0,0.,24.0,0.,24.0,0.,24.0,0.,24.0
1981-08-24 18:08:59.330 ,0,1,0.,24.0,0.,24.0,0.,24.0,0.,24.0
1981-08-24 18:09:23.330 ,0,0,0.,24.0,0.,24.0,0.,24.0,0.,24.0
1981-08-24 18:09:47.330 ,0,1,2.,24.0,0.,24.0,0.,24.0,0.,24.0
1981-08-24 18:10:11.330 ,0,0,0.,24.0,0.,24.0,0.,24.0,0.,24.0
1981-08-24 18:10:35.330 ,1,1,0.,24.0,0.,24.0,0.,24.0,0.,24.0
1981-08-24 18:10:59.330 ,1,0,0.,24.0,0.,24.0,0.,24.0,0.,24.0
1981-08-24 18:11:23.330 ,2,1,0.,24.0,0.,24.0,0.,24.0,0.,24.0
1981-08-24 18:11:47.330 ,2,0,0.,24.0,0.,24.0,0.,24.0,0.,24.0
1981-08-24 18:12:11.330 ,3,1,0.,24.0,0.,24.0,0.,24.0,0.,24.0
1981-08-24 18:12:35.330 ,3,0,0.,24.0,0.,24.0,0.,24.0,0.,24.0
1981-08-24 18:12:59.330 ,4,1,0.,24.0,0.,24.0,0.,24.0,0.,24.0
1981-08-24 18:13:23.330 ,4,0,0.,24.0,0.,24.0,0.,24.0,0.,24.0
1981-08-24 18:13:47.330 ,5,1,0.,24.0,0.,24.0,0.,24.0,0.,24.0
1981-08-24 18:14:11.330 ,5,0,0.,24.0,0.,24.0,0.,24.0,0.,24.0
1981-08-24 18:14:35.330 ,6,1,0.,24.0,0.,24.0,0.,24.0,0.,24.0
1981-08-24 18:14:59.330 ,6,0,0.,24.0,0.,24.0,0.,24.0,0.,24.0
1981-08-24 18:15:23.330 ,7,1,10.,24.0,1.,24.0,0.,24.0,0.,24.0
1981-08-24 18:15:47.330 ,7,0,32.,24.0,0.,24.0,0.,24.0,0.,24.0
1981-08-24 18:16:11.330 ,7,1,41.,24.0,0.,24.0,0.,24.0,0.,24.0
1981-08-24 18:16:35.330 ,6,1,20.,24.0,0.,24.0,0.,24.0,0.,24.0
1981-08-24 18:16:59.330 ,5,1,0.,24.0,0.,24.0,0.,24.0,0.,24.0
1981-08-24 18:17:23.330 ,4,1,0.,24.0,0.,24.0,0.,24.0,0.,24.0
1981-08-24 18:17:47.330 ,3,1,0.,24.0,0.,24.0,0.,24.0,0.,24.0
1981-08-24 18:18:11.330 ,2,1,0.,24.0,0.,24.0,0.,24.0,0.,24.0
1981-08-24 18:18:35.330 ,1,1,1.,24.0,0.,24.0,0.,24.0,0.,24.0
1981-08-24 18:18:59.330 ,0,1,0.,24.0,0.,24.0,0.,24.0,0.,24.0
1981-08-24 18:19:23.330 ,0,1,0.,24.0,0.,24.0,0.,24.0,0.,24.0
1981-08-24 18:19:47.330 ,1,1,0.,24.0,0.,24.0,0.,24.0,0.,24.0
1981-08-24 18:20:11.330 ,2,1,0.,24.0,0.,24.0,0.,24.0,0.,24.0
1981-08-24 18:20:35.330 ,3,1,0.,24.0,0.,24.0,0.,24.0,0.,24.0
1981-08-24 18:20:59.330 ,4,1,0.,24.0,0.,24.0,0.,24.0,0.,24.0
1981-08-24 18:21:23.330 ,5,1,0.,24.0,0.,24.0,0.,24.0,0.,24.0
1981-08-24 18:21:47.330 ,6,1,0.,24.0,0.,24.0,0.,24.0,0.,24.0
1981-08-24 18:22:11.330 ,7,1,6.,24.0,0.,24.0,0.,24.0,0.,24.0
1981-08-24 18:22:35.330 ,7,1,32.,24.0,0.,24.0,0.,24.0,0.,24.0
1981-08-24 18:22:59.330 ,7,0,37.,24.0,0.,24.0,0.,24.0,0.,24.0
1981-08-24 18:23:23.330 ,6,1,22.,24.0,0.,24.0,0.,24.0,0.,24.0
1981-08-24 18:23:47.330 ,6,0,0.,24.0,0.,24.0,0.,24.0,0.,24.0
1981-08-24 18:24:11.330 ,5,1,0.,24.0,0.,24.0,0.,24.0,0.,24.0
1981-08-24 18:24:35.330 ,5,0,0.,24.0,0.,24.0,0.,24.0,0.,24.0
1981-08-24 18:24:59.330 ,4,1,0.,24.0,0.,24.0,0.,24.0,0.,24.0
1981-08-24 18:25:23.330 ,4,0,0.,24.0,0.,24.0,0.,24.0,0.,24.0
1981-08-24 18:25:47.330 ,3,1,0.,24.0,0.,24.0,0.,24.0,0.,24.0
1981-08-24 18:26:11.330 ,3,0,0.,24.0,0.,24.0,0.,24.0,0.,24.0
1981-08-24 18:26:35.330 ,2,1,0.,24.0,0.,24.0,0.,24.0,0.,24.0
1981-08-24 18:26:59.330 ,2,0,0.,24.0,0.,24.0,0.,24.0,0.,24.0
1981-08-24 18:27:23.330 ,1,1,0.,24.0,0.,24.0,0.,24.0,0.,24.0
1981-08-24 18:27:47.330 ,1,0,0.,24.0,0.,24.0,0.,24.0,0.,24.0
1981-08-24 18:28:11.330 ,0,1,0.,24.0,0.,24.0,0.,24.0,0.,24.0
1981-08-24 18:28:35.330 ,0,0,0.,24.0,0.,24.0,0.,24.0,0.,24.0
1981-08-24 18:28:59.330 ,0,1,0.,24.0,0.,24.0,0.,24.0,0.,24.0
1981-08-24 18:29:23.330 ,0,0,0.,24.0,0.,24.0,0.,24.0,0.,24.0
1981-08-24 18:29:47.330 ,1,1,0.,24.0,0.,24.0,0.,24.0,0.,24.0
1981-08-24 18:30:11.330 ,1,0,0.,24.0,0.,24.0,0.,24.0,0.,24.0
1981-08-24 18:30:35.330 ,2,1,0.,24.0,0.,24.0,0.,24.0,0.,24.0
1981-08-24 18:30:59.330 ,2,0,0.,24.0,0.,24.0,0.,24.0,0.,24.0
1981-08-24 18:31:23.330 ,3,1,0.,24.0,1.,24.0,0.,24.0,0.,24.0
1981-08-24 18:31:47.330 ,3,0,0.,24.0,0.,24.0,0.,24.0,0.,24.0
1981-08-24 18:32:11.330 ,4,1,0.,24.0,0.,24.0,0.,24.0,0.,24.0
1981-08-24 18:32:35.330 ,4,0,0.,24.0,0.,24.0,0.,24.0,0.,24.0
1981-08-24 18:32:59.330 ,5,1,0.,24.0,0.,24.0,0.,24.0,0.,24.0
1981-08-24 18:33:23.330 ,5,0,0.,24.0,1.,24.0,0.,24.0,0.,24.0
1981-08-24 18:33:47.330 ,6,1,0.,24.0,1.,24.0,0.,24.0,0.,24.0
1981-08-24 18:34:11.330 ,6,0,0.,24.0,0.,24.0,0.,24.0,0.,24.0
1981-08-24 18:34:35.330 ,7,1,6.,24.0,0.,24.0,0.,24.0,0.,24.0
1981-08-24 18:34:59.330 ,7,0,26.,24.0,0.,24.0,0.,24.0,0.,24.0
1981-08-24 18:35:23.330 ,7,1,31.,24.0,0.,24.0,0.,24.0,0.,24.0
1981-08-24 18:35:47.330 ,6,1,18.,24.0,0.,24.0,0.,24.0,0.,24.0
1981-08-24 18:36:11.330 ,5,1,0.,24.0,0.,24.0,0.,24.0,0.,24.0
1981-08-24 18:36:35.330 ,4,1,0.,24.0,0.,24.0,0.,24.0,0.,24.0
1981-08-24 18:36:59.330 ,3,1,0.,24.0,0.,24.0,0.,24.0,0.,24.0
1981-08-24 18:37:23.330 ,2,1,0.,24.0,0.,24.0,0.,24.0,0.,24.0
1981-08-24 18:37:47.330 ,1,1,0.,24.0,0.,24.0,0.,24.0,0.,24.0
1981-08-24 18:38:11.330 ,0,1,0.,24.0,0.,24.0,0.,24.0,0.,24.0
1981-08-24 18:38:35.330 ,0,1,0.,24.0,0.,24.0,0.,24.0,0.,24.0
1981-08-24 18:38:59.330 ,1,1,0.,24.0,0.,24.0,0.,24.0,0.,24.0
1981-08-24 18:39:23.330 ,2,1,0.,24.0,0.,24.0,0.,24.0,0.,24.0
1981-08-24 18:39:47.330 ,3,1,0.,24.0,0.,24.0,0.,24.0,0.,24.0
1981-08-24 18:40:11.330 ,4,1,0.,24.0,0.,24.0,0.,24.0,0.,24.0
1981-08-24 18:40:35.330 ,5,1,0.,24.0,0.,24.0,0.,24.0,0.,24.0
1981-08-24 18:40:59.330 ,6,1,0.,24.0,0.,24.0,0.,24.0,0.,24.0
1981-08-24 18:41:23.330 ,7,1,5.,24.0,0.,24.0,0.,24.0,0.,24.0
1981-08-24 18:41:47.330 ,7,1,37.,24.0,0.,24.0,0.,24.0,0.,24.0
1981-08-24 18:42:11.330 ,7,0,34.,24.0,0.,24.0,0.,24.0,0.,24.0
1981-08-24 18:42:35.330 ,6,1,26.,24.0,0.,24.0,0.,24.0,0.,24.0
1981-08-24 18:42:59.330 ,6,0,0.,24.0,0.,24.0,0.,24.0,0.,24.0
1981-08-24 18:43:23.330 ,5,1,1.,24.0,0.,24.0,0.,24.0,0.,24.0
1981-08-24 18:43:47.330 ,5,0,0.,24.0,0.,24.0,0.,24.0,0.,24.0
1981-08-24 18:44:11.330 ,4,1,0.,24.0,0.,24.0,0.,24.0,0.,24.0
1981-08-24 18:44:35.330 ,4,0,0.,24.0,0.,24.0,0.,24.0,0.,24.0
1981-08-24 18:44:59.330 ,3,1,1.,24.0,0.,24.0,0.,24.0,0.,24.0
1981-08-24 18:45:23.330 ,3,0,0.,24.0,0.,24.0,0.,24.0,0.,24.0
1981-08-24 18:45:47.330 ,2,1,0.,24.0,0.,24.0,0.,24.0,0.,24.0
1981-08-24 18:46:11.330 ,2,0,0.,24.0,0.,24.0,0.,24.0,0.,24.0
1981-08-24 18:46:35.330 ,1,1,0.,24.0,0.,24.0,0.,24.0,0.,24.0
1981-08-24 18:46:59.330 ,1,0,0.,24.0,0.,24.0,0.,24.0,0.,24.0
1981-08-24 18:47:23.330 ,0,1,0.,24.0,0.,24.0,0.,24.0,0.,24.0
1981-08-24 18:47:47.330 ,0,0,0.,24.0,0.,24.0,0.,24.0,0.,24.0
1981-08-24 18:48:11.330 ,0,1,0.,24.0,0.,24.0,0.,24.0,0.,24.0
1981-08-24 18:48:35.330 ,0,0,0.,24.0,1.,24.0,0.,24.0,0.,24.0
1981-08-24 18:48:59.330 ,1,1,0.,24.0,0.,24.0,0.,24.0,0.,24.0
1981-08-24 18:49:23.330 ,1,0,0.,24.0,0.,24.0,0.,24.0,0.,24.0
1981-08-24 18:49:47.330 ,2,1,0.,24.0,0.,24.0,0.,24.0,0.,24.0
1981-08-24 18:50:11.330 ,2,0,1.,24.0,0.,24.0,0.,24.0,0.,24.0
1981-08-24 18:50:35.330 ,3,1,0.,24.0,0.,24.0,0.,24.0,0.,24.0
1981-08-24 18:50:59.330 ,3,0,0.,24.0,0.,24.0,0.,24.0,0.,24.0
1981-08-24 18:51:23.330 ,4,1,0.,24.0,0.,24.0,0.,24.0,0.,24.0
1981-08-24 18:51:47.330 ,4,0,0.,24.0,0.,24.0,0.,24.0,0.,24.0
1981-08-24 18:52:11.330 ,5,1,0.,24.0,0.,24.0,0.,24.0,0.,24.0
1981-08-24 18:52:35.330 ,5,0,0.,24.0,0.,24.0,0.,24.0,0.,24.0
1981-08-24 18:52:59.330 ,6,1,0.,24.0,0.,24.0,0.,24.0,0.,24.0
1981-08-24 18:53:23.330 ,6,0,0.,24.0,0.,24.0,0.,24.0,0.,24.0
1981-08-24 18:53:47.330 ,7,1,4.,24.0,0.,24.0,0.,24.0,0.,24.0
1981-08-24 18:54:11.330 ,7,0,27.,24.0,0.,24.0,0.,24.0,0.,24.0
1981-08-24 18:54:35.330 ,7,1,23.,24.0,0.,24.0,0.,24.0,0.,24.0
1981-08-24 18:54:59.330 ,6,1,19.,24.0,0.,24.0,0.,24.0,0.,24.0
1981-08-24 18:55:23.330 ,5,1,0.,24.0,0.,24.0,0.,24.0,0.,24.0
1981-08-24 18:55:47.330 ,4,1,0.,24.0,0.,24.0,0.,24.0,0.,24.0
1981-08-24 18:56:11.330 ,3,1,0.,24.0,0.,24.0,0.,24.0,0.,24.0
1981-08-24 18:56:35.330 ,2,1,0.,24.0,1.,24.0,0.,24.0,0.,24.0
1981-08-24 18:56:59.330 ,1,1,0.,24.0,0.,24.0,0.,24.0,0.,24.0
1981-08-24 18:57:23.330 ,0,1,0.,24.0,0.,24.0,0.,24.0,0.,24.0
1981-08-24 18:57:47.330 ,0,1,0.,24.0,0.,24.0,0.,24.0,0.,24.0
1981-08-24 18:58:11.330 ,1,1,0.,24.0,0.,24.0,0.,24.0,0.,24.0
1981-08-24 18:58:35.330 ,2,1,0.,24.0,0.,24.0,0.,24.0,0.,24.0
1981-08-24 18:58:59.330 ,3,1,0.,24.0,0.,24.0,0.,24.0,0.,24.0
1981-08-24 18:59:23.330 ,4,1,0.,24.0,0.,24.0,0.,24.0,0.,24.0
1981-08-24 18:59:47.330 ,5,1,0.,24.0,0.,24.0,0.,24.0,0.,24.0
1981-08-24 19:00:11.330 ,6,1,0.,24.0,0.,24.0,0.,24.0,0.,24.0
1981-08-24 19:00:35.330 ,7,1,6.,24.0,0.,24.0,0.,24.0,0.,24.0
1981-08-24 19:00:59.330 ,7,1,32.,24.0,0.,24.0,0.,24.0,0.,24.0
1981-08-24 19:01:23.330 ,7,0,29.,24.0,0.,24.0,0.,24.0,0.,24.0
1981-08-24 19:01:47.330 ,6,1,20.,24.0,0.,24.0,0.,24.0,0.,24.0
1981-08-24 19:02:11.330 ,6,0,0.,24.0,0.,24.0,0.,24.0,0.,24.0
1981-08-24 19:02:35.330 ,5,1,0.,24.0,0.,24.0,0.,24.0,0.,24.0
1981-08-24 19:02:59.330 ,5,0,0.,24.0,0.,24.0,0.,24.0,0.,24.0
1981-08-24 19:03:23.330 ,4,1,0.,24.0,0.,24.0,0.,24.0,0.,24.0
1981-08-24 19:03:47.330 ,4,0,0.,24.0,0.,24.0,0.,24.0,0.,24.0
1981-08-24 19:04:11.330 ,3,1,0.,24.0,0.,24.0,0.,24.0,0.,24.0
1981-08-24 19:04:35.330 ,3,0,0.,24.0,0.,24.0,0.,24.0,0.,24.0
1981-08-24 19:04:59.330 ,2,1,0.,24.0,0.,24.0,0.,24.0,0.,24.0
1981-08-24 19:05:23.330 ,2,0,,0,,0,,0,,0
1981-08-24 19:05:47.330 ,1,1,0.,24.0,0.,24.0,0.,24.0,0.,24.0
1981-08-24 19:06:11.330 ,1,0,0.,24.0,0.,24.0,0.,24.0,0.,24.0
1981-08-24 19:06:35.330 ,0,1,0.,24.0,0.,24.0,0.,24.0,0.,24.0
1981-08-24 19:06:59.330 ,0,0,0.,24.0,0.,24.0,0.,24.0,0.,24.0
1981-08-24 19:07:23.330 ,0,1,0.,24.0,0.,24.0,0.,24.0,0.,24.0
1981-08-24 19:07:47.330 ,0,0,0.,24.0,0.,24.0,0.,24.0,0.,24.0
1981-08-24 19:08:11.330 ,1,1,0.,24.0,0.,24.0,0.,24.0,0.,24.0
1981-08-24 19:08:35.330 ,1,0,0.,24.0,0.,24.0,0.,24.0,0.,24.0
1981-08-24 19:08:59.330 ,2,1,0.,24.0,0.,24.0,0.,24.0,0.,24.0
1981-08-24 19:09:23.330 ,2,0,0.,24.0,0.,24.0,0.,24.0,0.,24.0
1981-08-24 19:09:47.330 ,3,1,0.,24.0,0.,24.0,0.,24.0,0.,24.0
1981-08-24 19:10:11.330 ,3,0,0.,24.0,0.,24.0,0.,24.0,0.,24.0
1981-08-24 19:10:35.330 ,4,1,0.,24.0,0.,24.0,0.,24.0,0.,24.0
1981-08-24 19:10:59.330 ,4,0,0.,24.0,0.,24.0,0.,24.0,0.,24.0
1981-08-24 19:11:23.330 ,5,1,0.,24.0,0.,24.0,0.,24.0,0.,24.0
1981-08-24 19:11:47.330 ,5,0,0.,24.0,0.,24.0,0.,24.0,0.,24.0
1981-08-24 19:12:11.330 ,6,1,0.,24.0,0.,24.0,0.,24.0,0.,24.0
1981-08-24 19:12:35.330 ,6,0,0.,24.0,0.,24.0,0.,24.0,0.,24.0
1981-08-24 19:12:59.330 ,7,1,5.,24.0,1.,24.0,0.,24.0,0.,24.0
1981-08-24 19:13:23.330 ,7,0,36.,24.0,0.,24.0,0.,24.0,0.,24.0
1981-08-24 19:13:47.330 ,7,1,34.,24.0,0.,24.0,0.,24.0,0.,24.0
1981-08-24 19:14:11.330 ,6,1,20.,24.0,0.,24.0,0.,24.0,0.,24.0
1981-08-24 19:14:35.330 ,5,1,0.,24.0,0.,24.0,0.,24.0,0.,24.0
1981-08-24 19:14:59.330 ,4,1,0.,24.0,0.,24.0,0.,24.0,0.,24.0
1981-08-24 19:15:23.330 ,3,1,0.,24.0,0.,24.0,0.,24.0,0.,24.0
1981-08-24 19:15:47.330 ,2,1,0.,24.0,0.,24.0,0.,24.0,0.,24.0
1981-08-24 19:16:11.330 ,1,1,0.,24.0,0.,24.0,0.,24.0,0.,24.0
1981-08-24 19:16:35.330 ,0,1,0.,24.0,0.,24.0,0.,24.0,0.,24.0
1981-08-24 19:16:59.330 ,0,0,0.,24.0,0.,24.0,0.,24.0,0.,24.0
1981-08-24 19:17:23.330 ,1,1,0.,24.0,0.,24.0,0.,24.0,0.,24.0
1981-08-24 19:17:47.330 ,2,1,0.,24.0,0.,24.0,0.,24.0,0.,24.0
1981-08-24 19:18:11.330 ,3,1,0.,24.0,0.,24.0,0.,24.0,0.,24.0
1981-08-24 19:18:35.330 ,4,1,0.,24.0,0.,24.0,0.,24.0,0.,24.0
1981-08-24 19:18:59.330 ,5,1,0.,24.0,0.,24.0,0.,24.0,0.,24.0
1981-08-24 19:19:23.330 ,6,1,0.,24.0,0.,24.0,0.,24.0,0.,24.0
1981-08-24 19:19:47.330 ,7,1,4.,24.0,0.,24.0,0.,24.0,0.,24.0
1981-08-24 19:20:11.330 ,7,1,34.,24.0,0.,24.0,0.,24.0,0.,24.0
1981-08-24 19:20:35.330 ,7,0,36.,24.0,0.,24.0,0.,24.0,0.,24.0
1981-08-24 19:20:59.330 ,6,1,29.,24.0,0.,24.0,0.,24.0,0.,24.0
1981-08-24 19:21:23.330 ,6,0,0.,24.0,0.,24.0,0.,24.0,0.,24.0
1981-08-24 19:21:47.330 ,5,1,0.,24.0,0.,24.0,0.,24.0,0.,24.0
1981-08-24 19:22:11.330 ,5,0,0.,24.0,0.,24.0,0.,24.0,0.,24.0
1981-08-24 19:22:35.330 ,4,1,0.,24.0,0.,24.0,0.,24.0,0.,24.0
1981-08-24 19:22:59.330 ,4,0,0.,24.0,0.,24.0,0.,24.0,0.,24.0
1981-08-24 19:23:23.330 ,3,1,0.,24.0,0.,24.0,0.,24.0,0.,24.0
1981-08-24 19:23:47.330 ,3,0,0.,24.0,0.,24.0,0.,24.0,0.,24.0
1981-08-24 19:24:11.330 ,2,1,0.,24.0,0.,24.0,0.,24.0,0.,24.0
1981-08-24 19:24:35.330 ,2,0,0.,24.0,0.,24.0,0.,24.0,0.,24.0
1981-08-24 19:24:59.330 ,1,1,0.,24.0,0.,24.0,0.,24.0,0.,24.0
1981-08-24 19:25:23.330 ,1,0,0.,24.0,0.,24.0,0.,24.0,0.,24.0
1981-08-24 19:25:47.330 ,0,1,0.,24.0,0.,24.0,0.,24.0,0.,24.0
1981-08-24 19:26:11.330 ,0,0,0.,24.0,0.,24.0,0.,24.0,0.,24.0
1981-08-24 19:26:35.330 ,0,1,0.,24.0,0.,24.0,0.,24.0,0.,24.0
1981-08-24 19:26:59.330 ,0,0,0.,24.0,0.,24.0,0.,24.0,0.,24.0
1981-08-24 19:27:23.330 ,1,1,0.,24.0,0.,24.0,0.,24.0,0.,24.0
1981-08-24 19:27:47.330 ,1,0,0.,24.0,0.,24.0,0.,24.0,0.,24.0
1981-08-24 19:28:11.330 ,2,1,0.,24.0,0.,24.0,0.,24.0,0.,24.0
1981-08-24 19:28:35.330 ,2,0,0.,24.0,0.,24.0,0.,24.0,0.,24.0
1981-08-24 19:28:59.330 ,3,1,0.,24.0,0.,24.0,0.,24.0,0.,24.0
1981-08-24 19:29:23.330 ,3,0,1.,24.0,0.,24.0,0.,24.0,0.,24.0
1981-08-24 19:29:47.330 ,4,1,0.,24.0,0.,24.0,0.,24.0,0.,24.0
1981-08-24 19:30:11.330 ,4,0,0.,24.0,0.,24.0,0.,24.0,0.,24.0
1981-08-24 19:30:35.330 ,5,1,0.,24.0,0.,24.0,0.,24.0,0.,24.0
1981-08-24 19:30:59.330 ,5,0,0.,24.0,0.,24.0,0.,24.0,0.,24.0
1981-08-24 19:31:23.330 ,6,1,0.,24.0,0.,24.0,0.,24.0,0.,24.0
1981-08-24 19:31:47.330 ,6,0,0.,24.0,0.,24.0,0.,24.0,0.,24.0
1981-08-24 19:32:11.330 ,7,1,9.,24.0,0.,24.0,0.,24.0,0.,24.0
1981-08-24 19:32:35.330 ,7,0,25.,24.0,0.,24.0,0.,24.0,0.,24.0
1981-08-24 19:32:59.330 ,7,1,26.,24.0,0.,24.0,0.,24.0,0.,24.0
1981-08-24 19:33:23.330 ,6,1,22.,24.0,0.,24.0,0.,24.0,0.,24.0
1981-08-24 19:33:47.330 ,5,1,0.,24.0,0.,24.0,0.,24.0,0.,24.0
1981-08-24 19:34:11.330 ,4,1,0.,24.0,0.,24.0,0.,24.0,0.,24.0
1981-08-24 19:34:35.330 ,3,1,0.,24.0,0.,24.0,0.,24.0,0.,24.0
1981-08-24 19:34:59.330 ,2,1,0.,24.0,0.,24.0,0.,24.0,0.,24.0
1981-08-24 19:35:23.330 ,1,1,0.,24.0,0.,24.0,0.,24.0,0.,24.0
1981-08-24 19:35:47.330 ,0,1,0.,24.0,0.,24.0,0.,24.0,0.,24.0
1981-08-24 19:36:11.330 ,0,1,0.,24.0,0.,24.0,0.,24.0,0.,24.0
1981-08-24 19:36:35.330 ,1,1,0.,24.0,0.,24.0,0.,24.0,0.,24.0
1981-08-24 19:36:59.330 ,2,1,0.,24.0,0.,24.0,0.,24.0,0.,24.0
1981-08-24 19:37:23.330 ,3,1,0.,24.0,0.,24.0,0.,24.0,0.,24.0
1981-08-24 19:37:47.330 ,4,1,0.,24.0,0.,24.0,0.,24.0,0.,24.0
1981-08-24 19:38:11.330 ,5,1,0.,24.0,0.,24.0,0.,24.0,0.,24.0
1981-08-24 19:38:35.330 ,6,1,0.,24.0,0.,24.0,0.,24.0,0.,24.0
1981-08-24 19:38:59.330 ,7,1,4.,24.0,0.,24.0,0.,24.0,0.,24.0
1981-08-24 19:39:23.330 ,7,1,30.,24.0,0.,24.0,0.,24.0,0.,24.0
1981-08-24 19:39:47.330 ,7,0,35.,24.0,0.,24.0,0.,24.0,0.,24.0
1981-08-24 19:40:11.330 ,6,1,21.,24.0,0.,24.0,0.,24.0,0.,24.0
1981-08-24 19:40:35.330 ,6,0,0.,24.0,0.,24.0,0.,24.0,0.,24.0
1981-08-24 19:40:59.330 ,5,1,0.,24.0,0.,24.0,0.,24.0,0.,24.0
1981-08-24 19:41:23.330 ,5,0,0.,24.0,0.,24.0,0.,24.0,0.,24.0
1981-08-24 19:41:47.330 ,4,1,0.,24.0,0.,24.0,0.,24.0,0.,24.0
1981-08-24 19:42:11.330 ,4,0,0.,24.0,0.,24.0,0.,24.0,0.,24.0
1981-08-24 19:42:35.330 ,3,1,1.,24.0,0.,24.0,0.,24.0,0.,24.0
1981-08-24 19:42:59.330 ,3,0,0.,24.0,0.,24.0,0.,24.0,0.,24.0
1981-08-24 19:43:23.330 ,2,1,0.,24.0,0.,24.0,0.,24.0,0.,24.0
1981-08-24 19:43:47.330 ,2,0,0.,24.0,0.,24.0,0.,24.0,0.,24.0
1981-08-24 19:44:11.330 ,1,1,1.,24.0,0.,24.0,0.,24.0,0.,24.0
1981-08-24 19:44:35.330 ,1,0,0.,24.0,0.,24.0,0.,24.0,0.,24.0
1981-08-24 19:44:59.330 ,0,1,0.,24.0,0.,24.0,0.,24.0,0.,24.0
1981-08-24 19:45:23.330 ,0,0,0.,24.0,0.,24.0,0.,24.0,0.,24.0
1981-08-24 19:45:47.330 ,0,1,0.,24.0,0.,24.0,0.,24.0,0.,24.0
1981-08-24 19:46:11.330 ,0,0,0.,24.0,0.,24.0,0.,24.0,0.,24.0
1981-08-24 19:46:35.330 ,1,1,0.,24.0,0.,24.0,0.,24.0,0.,24.0
1981-08-24 19:46:59.330 ,1,0,0.,24.0,0.,24.0,0.,24.0,0.,24.0
1981-08-24 19:47:23.330 ,2,1,0.,24.0,0.,24.0,0.,24.0,0.,24.0
1981-08-24 19:47:47.330 ,2,0,0.,24.0,0.,24.0,0.,24.0,0.,24.0
1981-08-24 19:48:11.330 ,3,1,0.,24.0,0.,24.0,0.,24.0,0.,24.0
1981-08-24 19:48:35.330 ,3,0,0.,24.0,0.,24.0,0.,24.0,0.,24.0
1981-08-24 19:48:59.330 ,4,1,0.,24.0,0.,24.0,0.,24.0,0.,24.0
1981-08-24 19:49:23.330 ,4,0,0.,24.0,0.,24.0,0.,24.0,0.,24.0
1981-08-24 19:49:47.330 ,5,1,0.,24.0,0.,24.0,0.,24.0,0.,24.0
1981-08-24 19:50:11.330 ,5,0,0.,24.0,0.,24.0,0.,24.0,0.,24.0
1981-08-24 19:50:35.330 ,6,1,0.,24.0,1.,24.0,0.,24.0,0.,24.0
1981-08-24 19:50:59.330 ,6,0,0.,24.0,0.,24.0,0.,24.0,0.,24.0
1981-08-24 19:51:23.330 ,7,1,10.,24.0,0.,24.0,0.,24.0,0.,24.0
1981-08-24 19:51:47.330 ,7,0,42.,24.0,0.,24.0,0.,24.0,0.,24.0
1981-08-24 19:52:11.330 ,7,1,35.,24.0,0.,24.0,0.,24.0,0.,24.0
1981-08-24 19:52:35.330 ,6,1,21.,24.0,0.,24.0,0.,24.0,0.,24.0
1981-08-24 19:52:59.330 ,5,1,0.,24.0,0.,24.0,0.,24.0,0.,24.0
1981-08-24 19:53:23.330 ,4,1,0.,24.0,0.,24.0,0.,24.0,0.,24.0
1981-08-24 19:53:47.330 ,3,1,0.,24.0,0.,24.0,0.,24.0,0.,24.0
1981-08-24 19:54:11.330 ,2,1,0.,24.0,0.,24.0,0.,24.0,0.,24.0
1981-08-24 19:54:35.330 ,1,1,0.,24.0,0.,24.0,0.,24.0,0.,24.0
1981-08-24 19:54:59.330 ,0,1,0.,24.0,0.,24.0,0.,24.0,0.,24.0
1981-08-24 19:55:23.330 ,0,1,0.,24.0,0.,24.0,0.,24.0,0.,24.0
1981-08-24 19:55:47.330 ,1,1,0.,24.0,0.,24.0,0.,24.0,0.,24.0
1981-08-24 19:56:11.330 ,2,1,0.,24.0,0.,24.0,0.,24.0,0.,24.0
1981-08-24 19:56:35.330 ,3,1,0.,24.0,0.,24.0,0.,24.0,0.,24.0
1981-08-24 19:56:59.320 ,4,1,0.,24.0,0.,24.0,0.,24.0,0.,24.0
1981-08-24 19:57:23.320 ,5,1,0.,24.0,0.,24.0,0.,24.0,0.,24.0
1981-08-24 19:57:47.320 ,6,1,0.,24.0,0.,24.0,0.,24.0,0.,24.0
1981-08-24 19:58:11.320 ,7,1,9.,24.0,0.,24.0,0.,24.0,0.,24.0
1981-08-24 19:58:35.320 ,7,1,33.,24.0,0.,24.0,0.,24.0,0.,24.0
1981-08-24 19:58:59.320 ,7,0,31.,24.0,0.,24.0,0.,24.0,0.,24.0
1981-08-24 19:59:23.320 ,6,1,31.,24.0,0.,24.0,0.,24.0,0.,24.0
1981-08-24 19:59:47.320 ,6,0,0.,24.0,0.,24.0,0.,24.0,0.,24.0
1981-08-24 20:00:11.320 ,5,1,0.,24.0,0.,24.0,0.,24.0,0.,24.0
1981-08-24 20:00:35.330 ,5,0,1.,24.0,0.,24.0,0.,24.0,0.,24.0
1981-08-24 20:00:59.330 ,4,1,0.,24.0,0.,24.0,0.,24.0,0.,24.0
1981-08-24 20:01:23.330 ,4,0,0.,24.0,0.,24.0,0.,24.0,0.,24.0
1981-08-24 20:01:47.330 ,3,1,0.,24.0,0.,24.0,0.,24.0,0.,24.0
1981-08-24 20:02:11.330 ,3,0,0.,24.0,0.,24.0,0.,24.0,0.,24.0
1981-08-24 20:02:35.320 ,2,1,0.,24.0,0.,24.0,0.,24.0,0.,24.0
1981-08-24 20:02:59.320 ,2,0,0.,24.0,0.,24.0,0.,24.0,0.,24.0
1981-08-24 20:03:23.320 ,1,1,0.,24.0,0.,24.0,0.,24.0,0.,24.0
1981-08-24 20:03:47.320 ,1,0,0.,24.0,0.,24.0,0.,24.0,0.,24.0
1981-08-24 20:04:11.320 ,0,1,0.,24.0,0.,24.0,0.,24.0,0.,24.0
1981-08-24 20:04:35.330 ,0,0,0.,24.0,0.,24.0,0.,24.0,0.,24.0
1981-08-24 20:04:59.330 ,0,1,0.,24.0,0.,24.0,0.,24.0,0.,24.0
1981-08-24 20:05:23.330 ,0,0,0.,24.0,0.,24.0,0.,24.0,0.,24.0
1981-08-24 20:05:47.330 ,1,1,0.,24.0,1.,24.0,0.,24.0,0.,24.0
1981-08-24 20:06:11.330 ,1,0,0.,24.0,0.,24.0,0.,24.0,0.,24.0
1981-08-24 20:06:35.330 ,2,1,0.,24.0,0.,24.0,0.,24.0,0.,24.0
1981-08-24 20:06:59.330 ,2,0,0.,24.0,0.,24.0,0.,24.0,0.,24.0
1981-08-24 20:07:23.330 ,3,1,0.,24.0,0.,24.0,0.,24.0,0.,24.0
1981-08-24 20:07:47.330 ,3,0,0.,24.0,0.,24.0,0.,24.0,0.,24.0
1981-08-24 20:08:11.330 ,4,1,0.,24.0,0.,24.0,0.,24.0,0.,24.0
1981-08-24 20:08:35.330 ,4,0,0.,24.0,0.,24.0,0.,24.0,0.,24.0
1981-08-24 20:08:59.330 ,5,1,0.,24.0,0.,24.0,0.,24.0,0.,24.0
1981-08-24 20:09:23.330 ,5,0,0.,24.0,0.,24.0,0.,24.0,0.,24.0
1981-08-24 20:09:47.330 ,6,1,0.,24.0,1.,24.0,0.,24.0,0.,24.0
1981-08-24 20:10:11.330 ,6,0,0.,24.0,0.,24.0,0.,24.0,0.,24.0
1981-08-24 20:10:35.330 ,7,1,9.,24.0,0.,24.0,0.,24.0,0.,24.0
1981-08-24 20:10:59.330 ,7,0,40.,24.0,0.,24.0,0.,24.0,0.,24.0
1981-08-24 20:11:23.330 ,7,1,35.,24.0,0.,24.0,0.,24.0,0.,24.0
1981-08-24 20:11:47.330 ,6,1,16.,24.0,0.,24.0,0.,24.0,0.,24.0
1981-08-24 20:12:11.330 ,5,1,0.,24.0,0.,24.0,0.,24.0,0.,24.0
1981-08-24 20:12:35.330 ,4,1,0.,24.0,0.,24.0,0.,24.0,0.,24.0
1981-08-24 20:12:59.330 ,3,1,0.,24.0,0.,24.0,0.,24.0,0.,24.0
1981-08-24 20:13:23.330 ,2,1,0.,24.0,0.,24.0,0.,24.0,0.,24.0
1981-08-24 20:13:47.320 ,1,1,0.,24.0,0.,24.0,0.,24.0,0.,24.0
1981-08-24 20:14:11.320 ,0,1,0.,24.0,0.,24.0,0.,24.0,0.,24.0
1981-08-24 20:44:11.320 ,0,0,0.,24.0,0.,24.0,0.,24.0,0.,24.0
1981-08-24 20:44:35.320 ,0,0,0.,24.0,0.,24.0,0.,24.0,0.,24.0
1981-08-24 20:44:59.320 ,2,1,0.,24.0,0.,24.0,0.,24.0,0.,24.0
1981-08-24 20:45:23.320 ,2,0,0.,24.0,0.,24.0,0.,24.0,0.,24.0
1981-08-24 20:45:47.320 ,3,1,0.,24.0,0.,24.0,0.,24.0,0.,24.0
1981-08-24 20:46:11.320 ,3,0,0.,24.0,0.,24.0,0.,24.0,0.,24.0
1981-08-24 20:46:35.320 ,4,1,0.,24.0,0.,24.0,0.,24.0,0.,24.0
1981-08-24 20:46:59.320 ,4,0,0.,24.0,0.,24.0,0.,24.0,0.,24.0
1981-08-24 20:47:23.320 ,5,1,0.,24.0,0.,24.0,0.,24.0,0.,24.0
1981-08-24 20:47:47.320 ,5,0,0.,24.0,0.,24.0,0.,24.0,0.,24.0
1981-08-24 20:48:11.320 ,6,1,0.,24.0,0.,24.0,0.,24.0,0.,24.0
1981-08-24 20:48:35.320 ,6,0,0.,24.0,0.,24.0,0.,24.0,0.,24.0
1981-08-24 20:48:59.320 ,7,1,9.,24.0,0.,24.0,0.,24.0,0.,24.0
1981-08-24 20:49:23.320 ,7,0,29.,24.0,0.,24.0,0.,24.0,0.,24.0
1981-08-24 20:49:47.320 ,7,1,34.,24.0,0.,24.0,0.,24.0,0.,24.0
1981-08-24 20:50:11.320 ,6,1,18.,24.0,0.,24.0,0.,24.0,0.,24.0
1981-08-24 20:50:35.320 ,5,1,0.,24.0,0.,24.0,0.,24.0,0.,24.0
1981-08-24 20:50:59.320 ,4,1,0.,24.0,0.,24.0,0.,24.0,0.,24.0
1981-08-24 20:51:23.320 ,3,1,0.,24.0,0.,24.0,0.,24.0,0.,24.0
1981-08-24 20:51:47.320 ,2,1,0.,24.0,0.,24.0,0.,24.0,0.,24.0
1981-08-24 20:52:11.320 ,1,1,0.,24.0,0.,24.0,0.,24.0,0.,24.0
1981-08-24 20:52:35.320 ,0,1,0.,24.0,0.,24.0,0.,24.0,0.,24.0
1981-08-24 20:52:59.320 ,0,1,0.,24.0,0.,24.0,0.,24.0,0.,24.0
1981-08-24 20:53:23.320 ,1,1,0.,24.0,0.,24.0,0.,24.0,0.,24.0
1981-08-24 20:53:47.320 ,2,1,0.,24.0,0.,24.0,0.,24.0,0.,24.0
1981-08-24 20:54:11.320 ,3,1,0.,24.0,0.,24.0,0.,24.0,0.,24.0
1981-08-24 20:54:35.320 ,4,1,0.,24.0,0.,24.0,0.,24.0,0.,24.0
1981-08-24 20:54:59.320 ,5,1,0.,24.0,0.,24.0,0.,24.0,0.,24.0
1981-08-24 20:55:23.320 ,6,1,0.,24.0,0.,24.0,0.,24.0,0.,24.0
1981-08-24 20:55:47.320 ,7,1,9.,24.0,1.,24.0,0.,24.0,0.,24.0
1981-08-24 20:56:11.320 ,7,1,22.,24.0,0.,24.0,0.,24.0,0.,24.0
1981-08-24 20:56:35.320 ,7,0,25.,24.0,0.,24.0,0.,24.0,0.,24.0
1981-08-24 20:56:59.320 ,6,1,21.,24.0,0.,24.0,0.,24.0,0.,24.0
1981-08-24 20:57:23.320 ,6,0,0.,24.0,0.,24.0,0.,24.0,0.,24.0
1981-08-24 20:57:47.320 ,5,1,0.,24.0,0.,24.0,0.,24.0,0.,24.0
1981-08-24 20:58:11.320 ,5,0,0.,24.0,0.,24.0,0.,24.0,0.,24.0
1981-08-24 20:58:35.320 ,4,1,0.,24.0,0.,24.0,0.,24.0,0.,24.0
1981-08-24 20:58:59.320 ,4,0,0.,24.0,0.,24.0,0.,24.0,0.,24.0
1981-08-24 20:59:23.320 ,3,1,0.,24.0,0.,24.0,0.,24.0,0.,24.0
1981-08-24 20:59:47.320 ,3,0,0.,24.0,0.,24.0,0.,24.0,0.,24.0
1981-08-24 21:00:11.320 ,2,1,0.,24.0,0.,24.0,0.,24.0,0.,24.0
